Theta_e
331 331 331 331 331 330 330 329 328 327 326 325 324 323 321 319 318 317 316 316 314 311 309 308 307 307 306 304 302 299 297 296 295 294 293 293 292 292 292 292 291 291
330 331 331 330 331 330 329 329 327 326 325 324 322 322 320 318 317 317 315 312 309 307 306 305 304 304 302 300 298 296 294 294 293 293 292 292 292 291 291 291 291 290
330 330 330 330 330 329 328 328 326 326 324 322 322 321 319 317 317 314 310 307 305 304 303 302 301 299 298 296 295 294 293 293 293 292 292 292 291 291 291 290 290 290
330 330 330 330 329 329 328 326 325 324 322 321 321 319 317 316 314 309 306 304 303 302 300 299 297 296 295 294 293 293 293 292 292 292 291 292 291 291 290 290 289 289
329 329 329 328 329 328 326 325 324 322 322 322 320 317 316 314 309 305 304 303 301 299 298 296 295 294 293 293 293 293 292 292 292 292 291 291 291 290 290 289 289 288
328 327 327 327 327 326 326 324 323 322 322 321 318 316 313 309 305 304 303 301 299 297 295 294 294 293 293 292 292 292 292 292 291 291 291 290 290 290 289 289 289 288
326 326 326 326 325 324 324 323 322 322 322 319 316 313 308 305 304 302 300 298 296 295 294 293 293 293 292 292 292 292 292 291 291 290 290 290 289 289 289 289 288 288
325 325 324 324 323 322 322 322 322 321 319 316 312 308 304 303 302 300 298 296 294 293 293 293 292 292 292 292 291 292 291 291 290 290 290 289 289 289 289 288 288 288
323 323 322 322 322 321 321 320 319 317 315 312 307 304 302 302 300 297 296 294 293 292 292 292 292 292 291 291 291 291 291 290 290 290 289 289 289 289 288 288 288 287
321 321 321 320 320 320 319 318 315 313 310 306 304 302 301 299 297 295 294 293 292 292 292 292 292 291 291 291 291 290 290 290 289 289 289 289 288 288 288 288 288 287
319 319 319 318 318 317 316 315 312 309 305 303 302 301 299 297 295 293 292 292 292 292 291 291 291 291 291 291 290 290 289 289 289 289 288 288 288 287 287 287 287 287
317 317 317 317 316 315 314 312 308 304 302 301 300 298 296 294 293 292 291 291 291 291 291 291 291 290 290 290 290 289 289 289 288 288 288 288 287 287 287 287 287 286
315 316 315 315 314 313 311 307 303 301 301 300 298 295 294 293 291 291 291 291 291 291 290 290 290 290 290 289 289 288 288 288 288 288 287 287 287 287 287 286 286 286
314 315 314 312 311 309 306 302 300 300 299 297 295 293 292 291 291 291 290 290 290 290 290 290 290 289 289 288 288 288 288 288 288 288 287 287 287 287 286 286 286 285
313 312 311 310 308 305 301 300 300 298 296 294 293 292 291 291 291 290 290 290 290 290 289 289 289 289 288 288 288 288 288 288 287 287 287 287 287 286 286 286 286 285
310 309 308 306 304 301 299 299 298 296 294 292 291 291 291 290 290 290 290 290 290 289 289 288 288 288 288 288 288 287 287 287 287 287 287 287 287 286 286 286 285 285
307 306 305 303 301 299 298 297 295 293 292 291 290 290 290 290 289 289 289 289 289 289 288 288 288 287 287 287 287 287 287 287 287 287 287 286 286 286 286 285 285 285
304 303 302 300 299 298 297 296 294 292 291 290 290 290 289 289 289 289 289 289 288 288 288 287 287 287 287 287 287 287 287 287 287 286 286 286 286 285 285 285 284 284
302 301 300 298 298 297 296 294 292 291 290 290 289 289 289 289 289 288 288 288 288 288 287 287 287 287 286 286 286 286 286 286 286 286 286 286 285 285 285 284 284 284
300 299 298 297 296 295 294 292 291 290 290 289 289 289 289 288 288 288 288 287 287 287 287 287 286 286 286 286 286 286 286 286 286 286 285 285 285 285 284 284 284 283
298 297 296 296 295 293 292 291 290 290 289 289 289 289 289 288 288 288 287 287 287 286 286 286 286 286 286 286 286 286 286 286 286 285 285 285 284 284 284 284 283 282
296 295 295 294 293 292 291 290 289 289 289 289 289 288 288 288 287 287 287 287 286 286 286 286 286 286 285 285 285 286 285 285 285 285 284 284 284 284 284 283 283 282
295 295 294 293 292 291 290 289 289 289 289 289 288 288 287 287 287 287 286 286 286 286 286 286 286 285 285 285 285 285 285 285 285 284 284 284 284 284 284 283 282 281
295 294 293 292 291 290 290 289 289 289 288 288 288 288 287 287 287 286 286 286 286 286 285 286 286 285 285 285 285 285 285 285 285 284 284 284 284 284 283 283 282 280
293 292 291 291 290 290 289 289 289 288 288 288 288 288 287 287 286 286 286 285 285 285 285 285 285 285 285 284 284 285 285 285 284 284 284 284 284 283 283 282 281 279
292 291 291 290 290 289 289 289 289 288 288 287 287 287 287 286 286 286 285 285 285 285 285 285 285 284 284 284 284 284 284 284 284 284 284 284 283 282 281 281 279 278
Wind_Speed
30 30 28 27 27 25 23 24 24 23 23 21 19 16 14 13 13 14 13 11 10 9 8 8 8 9 9 8 8 8 9 9 9 10 8 7 8 7 7 7 7 7
29 29 28 28 28 25 24 25 25 25 24 22 19 15 13 13 14 14 12 11 10 10 10 11 11 11 11 11 10 9 9 8 8 8 7 6 6 5 5 5 5 6
30 29 29 29 28 26 27 28 27 26 24 21 18 15 14 15 15 14 12 11 12 13 13 14 14 13 12 12 10 9 9 8 8 7 5 5 5 4 4 5 5 6
31 30 30 30 28 27 28 29 28 26 23 19 16 15 16 17 16 14 14 14 15 16 15 15 14 13 12 11 10 9 9 8 7 7 4 4 4 3 4 5 5 6
31 31 30 30 29 28 28 29 28 25 21 18 16 17 18 18 16 17 17 17 17 17 16 16 14 13 12 11 10 9 9 8 7 6 4 3 3 3 4 5 5 6
30 30 30 30 30 29 29 28 27 24 21 19 18 20 20 19 18 19 20 19 18 18 17 15 14 13 12 11 10 9 8 7 6 5 4 3 3 3 4 5 6 8
29 29 29 30 30 30 29 28 25 22 21 20 21 22 21 20 21 21 21 20 19 18 16 14 14 13 12 11 10 9 8 7 6 5 4 3 3 3 4 6 7 9
29 29 29 30 30 29 27 26 24 22 22 22 23 23 22 22 23 22 21 20 19 17 16 15 14 13 12 11 9 8 8 7 6 4 3 3 3 4 6 7 9 11
29 29 30 30 29 27 25 23 23 23 23 24 25 24 24 23 23 23 22 20 19 17 16 15 14 13 12 11 9 8 7 6 4 3 2 3 4 6 8 9 11 12
28 29 29 28 27 25 23 23 24 25 26 26 27 27 26 25 24 23 21 20 19 18 17 15 14 13 12 10 9 7 6 5 3 3 3 4 5 7 9 10 12 14
28 28 27 26 24 23 23 25 26 27 27 28 29 28 27 26 24 23 21 20 19 18 17 16 14 13 12 10 9 7 6 4 4 3 4 5 6 7 9 11 12 14
26 26 25 24 23 24 26 27 28 29 30 30 29 29 28 26 24 23 21 20 19 17 16 16 14 13 11 10 8 7 5 4 3 3 3 4 6 8 9 11 13 14
24 23 23 23 25 27 28 29 30 31 31 30 29 28 28 26 25 23 21 20 19 18 16 15 13 12 11 9 8 6 5 3 2 2 3 5 7 9 10 11 13 14
24 23 24 25 27 29 30 31 32 31 31 30 29 28 27 26 25 24 22 20 19 18 17 15 13 12 10 9 8 6 4 3 2 2 3 5 7 9 11 12 13 14
26 26 27 29 30 31 32 33 32 32 31 30 28 27 27 26 24 23 22 21 20 18 16 15 13 12 10 8 7 5 3 2 2 3 4 6 8 9 11 12 13 14
29 30 30 30 32 33 34 34 33 32 31 30 29 28 27 26 24 23 22 21 20 18 16 15 13 11 10 7 6 4 2 1 2 4 5 7 9 10 11 13 13 14
31 31 31 32 34 35 35 34 33 32 31 30 29 28 27 26 25 23 22 20 19 18 16 15 13 11 9 6 4 3 1 1 2 5 7 8 10 12 12 13 14 14
32 32 33 34 36 36 35 35 33 32 32 31 30 29 27 26 25 24 22 20 18 17 16 14 12 10 8 6 4 2 0 2 3 5 7 9 10 12 13 14 15 15
32 33 35 36 36 36 35 35 34 33 33 31 30 29 28 26 25 23 22 20 18 17 16 14 12 9 7 5 3 2 0 2 4 6 7 9 10 12 13 14 15 16
34 35 36 36 36 36 35 35 34 34 33 32 31 30 28 27 25 23 22 20 18 17 16 14 11 9 7 5 4 2 1 3 5 6 8 9 10 11 12 14 15 16
35 36 37 36 36 36 36 35 35 34 33 32 30 30 28 27 25 23 22 20 19 17 15 13 11 9 7 5 3 2 2 4 5 6 8 9 10 11 12 13 14 15
37 37 37 37 37 37 36 36 35 34 33 32 31 29 27 26 24 23 22 20 19 17 15 13 11 9 7 5 3 2 3 4 5 6 8 9 10 11 12 13 14 14
38 38 38 38 38 38 37 36 35 34 33 32 31 29 27 26 24 22 21 20 18 16 14 12 11 8 6 5 4 3 3 4 6 7 8 9 10 11 12 13 13 14
38 39 39 39 39 38 38 37 35 34 33 32 31 30 28 26 24 23 21 19 17 16 14 12 10 8 7 5 4 4 4 4 6 7 8 9 11 12 13 13 13 13
38 38 39 39 39 39 38 37 36 34 33 31 29 29 28 26 24 23 21 19 17 15 13 11 10 8 6 5 4 4 5 5 6 8 9 10 12 12 13 13 13 13
38 38 39 39 39 38 37 37 36 34 33 31 29 28 27 25 24 22 21 19 17 15 13 11 9 8 6 5 4 4 6 6 6 8 10 11 12 13 13 13 13 13
Wind_Direction
221 221 221 221 218 216 213 208 205 206 207 211 214 217 226 233 237 238 233 227 223 216 199 183 170 158 151 139 127 117 107 101 93 87 81 75 73 68 59 50 42 35
218 219 219 218 214 211 211 211 209 208 209 209 209 215 226 230 228 224 221 216 202 184 171 161 151 145 141 133 126 119 110 103 97 94 91 86 82 73 62 48 33 26
215 216 216 214 211 210 209 206 205 205 203 200 205 220 227 223 219 212 203 193 179 166 156 149 143 140 136 131 127 121 116 115 110 107 104 95 86 70 60 46 29 20
211 213 214 211 211 212 208 201 197 197 196 199 213 225 221 213 208 197 184 175 169 159 152 149 144 141 136 132 132 129 126 125 119 116 113 98 85 68 55 42 30 21
209 209 209 208 207 205 202 197 194 193 198 213 224 220 210 203 194 182 173 167 164 158 153 151 147 143 141 139 140 138 134 131 125 122 119 101 80 55 37 29 26 17
205 204 203 204 201 197 195 195 195 198 211 223 219 206 199 192 182 175 170 166 163 160 156 154 152 149 148 147 147 145 141 138 133 131 128 104 72 40 24 19 19 13
199 198 198 198 194 192 193 194 197 207 217 216 204 195 189 181 176 172 169 166 163 161 159 157 156 154 152 153 153 149 145 141 137 136 129 104 72 33 22 15 12 11
193 192 190 190 189 188 190 194 202 209 208 200 192 185 179 175 174 170 168 168 165 163 161 160 160 158 156 158 157 152 147 145 143 141 121 90 58 27 18 10 5 2
187 185 184 185 186 188 193 199 204 201 194 190 183 175 172 173 173 170 169 169 166 164 163 162 162 161 160 159 157 153 151 150 146 128 90 54 32 18 8 2 358 355
184 183 183 186 188 193 199 200 196 190 184 182 177 172 171 172 172 172 171 170 168 167 166 166 165 163 161 158 157 157 155 149 129 93 59 37 21 10 2 355 353 352
184 184 186 189 193 197 197 192 188 183 178 176 174 172 171 171 172 172 172 172 171 170 168 167 166 163 161 160 160 158 151 138 111 79 49 32 13 3 360 354 353 352
186 187 189 194 198 197 192 187 183 178 174 174 175 173 171 172 172 171 173 174 172 171 170 169 165 163 164 163 160 154 144 131 106 78 41 25 11 2 0 354 352 353
192 194 199 200 197 192 187 182 178 175 173 174 174 174 173 173 172 172 173 175 173 171 170 170 167 165 165 162 158 155 147 138 114 75 31 16 8 359 358 355 351 352
200 202 202 197 191 187 183 178 175 174 174 174 174 176 176 175 175 174 173 173 173 172 170 169 168 167 166 165 162 162 157 148 109 53 21 8 6 357 353 354 351 350
200 198 194 190 187 183 179 176 174 174 174 174 175 176 176 176 177 176 175 173 173 173 171 169 170 168 166 168 166 165 158 128 52 21 8 358 358 357 352 352 352 351
194 191 188 186 184 181 177 176 175 175 175 175 176 177 177 176 176 176 176 177 174 173 171 169 170 170 168 171 170 163 147 87 21 358 360 356 354 355 352 351 353 352
189 187 186 184 182 179 178 177 177 176 176 177 176 177 177 176 176 176 176 177 176 173 172 170 170 171 170 172 172 159 133 26 7 358 358 357 353 352 352 352 353 354
188 186 184 183 181 179 179 178 178 178 178 178 178 178 177 176 177 177 176 176 176 174 172 172 171 171 169 173 182 172 155 338 356 3 358 356 356 354 354 354 352 352
189 187 184 183 181 180 180 179 179 180 179 180 179 178 178 177 177 178 176 176 177 176 174 172 170 169 170 177 195 209 262 343 356 2 360 358 358 357 357 355 352 351
189 187 184 183 181 181 181 180 181 181 181 181 180 179 179 178 177 177 176 176 178 178 175 172 171 170 175 187 202 233 309 348 356 358 2 2 360 1 360 355 353 351
189 186 184 183 182 182 182 182 182 183 182 181 181 181 181 180 178 178 177 177 177 179 176 172 172 173 178 194 213 248 313 342 353 356 2 5 2 1 360 358 355 352
189 186 185 184 183 183 183 183 184 183 183 182 181 181 181 180 179 179 180 179 177 178 179 175 174 178 183 197 227 262 306 333 346 353 359 2 2 1 0 0 357 353
190 189 187 186 185 184 184 185 185 185 184 184 182 181 180 180 181 179 180 182 179 178 181 180 178 181 187 204 237 269 304 327 338 347 353 356 360 1 0 1 360 357
192 191 190 188 186 186 186 186 186 186 186 185 185 184 182 181 182 180 179 181 180 180 182 185 186 185 188 209 243 271 297 322 333 339 348 352 355 360 0 2 2 1
194 193 193 191 189 189 188 188 188 187 186 186 186 186 184 182 182 182 179 178 181 183 183 186 190 189 192 212 243 274 300 321 331 335 343 349 354 358 360 1 2 1
196 195 195 194 192 190 189 189 189 188 186 185 185 186 185 183 183 183 182 181 181 184 186 187 191 195 201 215 240 278 303 319 330 336 343 350 356 358 357 358 360 359